Location: Cañada de la Miga
(34.7595°N, 106.2317°W)
Time: 22:36:39
(UTC+00:00)

Transit 4A - Pass Details

Date: 03 December 2021
Orbit: 864 x 980 km, 66.8° (Epoch: 16 January)

Event Time Altitude Azimuth Distance (km) Brightness Sun altitude
Rises 09:57:19 0° 350° (N) 3,614 - -48.3°
Reaches altitude 10° 10:01:15 10° 14° (NNE) 2,690 - -47.5°
Maximum altitude 10:04:32 14° 46° (NE) 2,393 - -46.9°
Exits shadow 10:05:39 14° 57° (ENE) 2,434 10.5 -46.6°
Drops below altitude 10° 10:07:50 10° 78° (ENE) 2,715 10.9 -46.2°
Sets 10:11:49 0° 101° (ESE) 3,670 11.7 -45.4°
